GW4074 Weather Reports


time (UTC)temp
C
wind
direction
speed
KPH
gust
KPH
rain 1hr
cm
rain 24hr
cm
rain mn
cm
humidity
%
barometer
mb
20260505035758 17 46 0.0 1.6 0.00 0.00 0.00 70 1010.2
20260505035254 17 109 3.2 3.2 0.00 0.00 0.00 69 1010.2
20260505034751 17 112 3.2 3.2 0.00 0.00 0.00 68 1010.3
20260505034248 17 73 3.2 3.2 0.00 0.00 0.00 67 1010.1
20260505033744 17 78 1.6 4.8 0.00 0.00 0.00 68 1010.2
20260505033242 17 89 1.6 4.8 0.00 0.00 0.00 68 1010.2
20260505032740 17 53 1.6 3.2 0.00 0.00 0.00 66 1010.0
20260505032236 17 11 1.6 3.2 0.00 0.00 0.00 66 1010.1
20260505031733 17 55 1.6 3.2 0.00 0.00 0.00 68 1010.0
20260505031229 17 43 1.6 1.6 0.00 0.00 0.00 66 1009.9
20260505030727 17 44 0.0 1.6 0.00 0.00 0.00 67 1010.1
20260505030223 18 32 0.0 1.6 0.00 0.00 0.00 66 1009.7
20260505025718 18 66 0.0 0.0 0.00 0.00 0.00 64 1010.0
20260505025217 18 77 0.0 1.6 0.00 0.00 0.00 62 1009.9
20260505024715 18 109 6.4 6.4 0.00 0.00 0.00 61 1009.9
20260505024211 20 139 1.6 3.2 0.00 0.00 0.00 58 1010.0
20260505023709 20 139 3.2 4.8 0.00 0.00 0.00 57 1009.8
20260505023206 20 139 3.2 6.4 0.00 0.00 0.00 57 1009.8
20260505022704 20 137 3.2 3.2 0.00 0.00 0.00 57 1009.8
20260505022200 20 139 3.2 4.8 0.00 0.00 0.00 57 1009.9
20260505021656 20 135 4.8 4.8 0.00 0.00 0.00 56 1009.9
20260505021153 19 154 3.2 4.8 0.00 0.00 0.00 58 1009.9
20260505020649 19 147 3.2 4.8 0.00 0.00 0.00 60 1010.0
20260505020145 20 153 3.2 4.8 0.00 0.00 0.00 59 1010.0
20260505015642 20 143 3.2 6.4 0.00 0.00 0.00 58 1010.0
20260505015139 20 166 0.0 4.8 0.00 0.00 0.00 58 1010.4
20260505014636 20 128 3.2 3.2 0.00 0.00 0.00 57 1010.2
20260505014133 20 153 3.2 3.2 0.00 0.00 0.00 57 1010.3
20260505013630 20 140 0.0 3.2 0.00 0.00 0.00 56 1010.2
20260505013127 20 170 4.8 6.4 0.00 0.00 0.00 55 1010.3
20260505012626 20 128 3.2 3.2 0.00 0.00 0.00 58 1010.3
20260505012122 20 129 3.2 4.8 0.00 0.00 0.00 56 1010.3
20260505011618 20 150 3.2 4.8 0.00 0.00 0.00 56 1010.4
20260505011115 20 169 3.2 6.4 0.00 0.00 0.00 55 1010.5
20260505010610 20 158 4.8 6.4 0.00 0.00 0.00 56 1010.5
20260505010107 20 168 4.8 6.4 0.00 0.00 0.00 56 1010.5
20260505005603 20 168 3.2 6.4 0.00 0.00 0.00 55 1010.5
20260505005101 21 173 4.8 6.4 0.00 0.00 0.00 53 1010.8
20260505004557 21 173 4.8 4.8 0.00 0.00 0.00 53 1010.5
20260505004054 21 176 4.8 6.4 0.00 0.00 0.00 52 1010.7
20260505003552 22 179 6.4 6.4 0.00 0.00 0.00 51 1010.8
20260505003049 21 178 3.2 4.8 0.00 0.00 0.00 51 1010.7
20260505002543 21 175 6.4 6.4 0.00 0.00 0.00 52 1010.7
20260505002043 22 153 3.2 4.8 0.00 0.00 0.00 52 1010.3
20260505001540 21 174 1.6 8.0 0.00 0.00 0.00 52 1010.4
20260505001037 21 138 6.4 6.4 0.00 0.00 0.00 52 1010.5
20260505000534 21 125 4.8 4.8 0.00 0.00 0.00 51 1010.5
20260505000032 22 143 4.8 6.4 0.00 0.00 0.00 52 1010.7
20260504235528 22 136 6.4 6.4 0.00 0.00 0.00 52 1010.5
20260504235025 22 123 4.8 6.4 0.00 0.00 0.00 50 1010.3
20260504234522 22 191 8.0 9.7 0.00 0.00 0.00 49 1010.3
20260504234019 22 131 6.4 6.4 0.00 0.00 0.00 49 1010.4
20260504233514 22 173 3.2 6.4 0.00 0.00 0.00 48 1010.5
20260504233011 22 132 4.8 6.4 0.00 0.00 0.00 49 1010.7
20260504232508 22 139 3.2 4.8 0.00 0.00 0.00 49 1010.4
20260504232006 22 138 3.2 4.8 0.00 0.00 0.00 47 1010.3
20260504231502 23 117 3.2 6.4 0.00 0.00 0.00 46 1010.5
20260504230958 23 125 3.2 6.4 0.00 0.00 0.00 45 1010.7
20260504230455 23 134 4.8 6.4 0.00 0.00 0.00 46 1010.3
20260504225954 23 122 4.8 6.4 0.00 0.00 0.00 45 1010.3
20260504225450 23 121 4.8 6.4 0.00 0.00 0.00 44 1010.7
20260504224947 23 197 0.0 4.8 0.00 0.00 0.00 43 1010.7
20260504224444 23 190 0.0 6.4 0.00 0.00 0.00 43 1010.9
20260504223941 23 157 4.8 8.0 0.00 0.00 0.00 43 1010.5
20260504223437 25 144 3.2 4.8 0.00 0.00 0.00 41 1010.7
20260504222933 25 122 6.4 6.4 0.00 0.00 0.00 42 1010.7
20260504222431 26 145 3.2 6.4 0.00 0.00 0.00 38 1010.7
20260504221928 25 180 1.6 6.4 0.00 0.00 0.00 38 1010.8
20260504221425 26 181 6.4 8.0 0.00 0.00 0.00 36 1010.9
20260504220922 25 120 3.2 4.8 0.00 0.00 0.00 39 1010.8
20260504220419 25 60 1.6 6.4 0.00 0.00 0.00 37 1011.0
20260504215916 25 134 3.2 8.0 0.00 0.00 0.00 39 1011.0
20260504215412 25 131 3.2 8.0 0.00 0.00 0.00 39 1011.2
20260504214909 25 147 3.2 3.2 0.00 0.00 0.00 39 1011.1
20260504214405 25 131 4.8 6.4 0.00 0.00 0.00 39 1010.8
20260504213902 25 190 4.8 6.4 0.00 0.00 0.00 40 1010.9
20260504213358 26 197 3.2 4.8 0.00 0.00 0.00 38 1011.0
20260504212855 25 236 1.6 6.4 0.00 0.00 0.00 39 1011.2
20260504212351 25 110 3.2 8.0 0.00 0.00 0.00 41 1011.2
20260504211849 24 137 3.2 4.8 0.00 0.00 0.00 42 1011.0
20260504211345 25 110 6.4 8.0 0.00 0.00 0.00 40 1011.2
20260504210843 25 145 3.2 6.4 0.00 0.00 0.00 41 1011.0
20260504210340 25 303 1.6 4.8 0.00 0.00 0.00 41 1011.1
20260504205837 24 185 3.2 9.7 0.00 0.00 0.00 41 1011.0
20260504205334 25 224 1.6 6.4 0.00 0.00 0.00 41 1011.1
20260504204832 25 192 6.4 8.0 0.00 0.00 0.00 41 1011.0
20260504204331 25 152 1.6 8.0 0.00 0.00 0.00 40 1011.1
20260504203830 25 158 1.6 8.0 0.00 0.00 0.00 38 1011.3
20260504203326 25 153 1.6 4.8 0.00 0.00 0.00 41 1011.3
20260504202822 25 187 8.0 8.0 0.00 0.00 0.00 37 1011.3
20260504202320 26 159 3.2 4.8 0.00 0.00 0.00 30 1011.0
20260504201816 26 136 3.2 4.8 0.00 0.00 0.00 35 1011.3
20260504201313 25 28 0.0 4.8 0.00 0.00 0.00 32 1011.1
20260504200811 25 283 4.8 6.4 0.00 0.00 0.00 32 1011.1
20260504200307 24 3 0.0 8.0 0.00 0.00 0.00 42 1011.2
20260504195803 25 147 3.2 3.2 0.00 0.00 0.00 39 1011.0
20260504195259 25 147 0.0 3.2 0.00 0.00 0.00 40 1011.0
20260504194756 25 145 3.2 4.8 0.00 0.00 0.00 41 1011.1
20260504194252 25 193 3.2 6.4 0.00 0.00 0.00 40 1011.2
20260504193749 25 191 1.6 3.2 0.00 0.00 0.00 39 1011.2
20260504193246 25 112 6.4 6.4 0.00 0.00 0.00 38 1011.0
20260504192744 25 325 0.0 3.2 0.00 0.00 0.00 38 1011.1
20260504192242 24 349 3.2 6.4 0.00 0.00 0.00 36 1011.1
20260504191741 24 283 3.2 12.9 0.00 0.00 0.00 39 1011.0
20260504191237 24 87 1.6 8.0 0.00 0.00 0.00 34 1011.0
20260504190732 25 4 3.2 4.8 0.00 0.00 0.00 40 1011.1
20260504190229 23 108 3.2 3.2 0.00 0.00 0.00 44 1011.0
20260504185726 23 174 6.4 8.0 0.00 0.00 0.00 44 1011.1
20260504185223 23 195 8.0 8.0 0.00 0.00 0.00 44 1011.2
20260504184719 23 138 3.2 9.7 0.00 0.00 0.00 46 1011.0
20260504184215 23 192 3.2 8.0 0.00 0.00 0.00 43 1011.1
20260504183711 23 230 4.8 6.4 0.00 0.00 0.00 45 1011.2
20260504183208 23 199 4.8 6.4 0.00 0.00 0.00 47 1011.1
20260504182706 23 185 3.2 3.2 0.00 0.00 0.00 47 1011.4
20260504182203 22 144 6.4 6.4 0.00 0.00 0.00 47 1011.4
20260504181700 22 180 1.6 8.0 0.00 0.00 0.00 47 1011.3
20260504181158 22 171 3.2 6.4 0.00 0.00 0.00 45 1011.2
20260504180657 22 180 4.8 9.7 0.00 0.00 0.00 44 1011.1
20260504180155 22 168 3.2 9.7 0.00 0.00 0.00 44 1011.2
20260504175652 22 122 3.2 6.4 0.00 0.00 0.00 48 1011.1
20260504175148 22 180 0.0 4.8 0.00 0.00 0.00 47 1010.9
20260504174647 21 126 6.4 8.0 0.00 0.00 0.00 48 1011.2
20260504174143 22 148 3.2 6.4 0.00 0.00 0.00 47 1011.0
20260504173640 21 116 3.2 4.8 0.00 0.00 0.00 50 1010.9
20260504173138 21 168 3.2 6.4 0.00 0.00 0.00 48 1011.0
20260504172634 21 139 4.8 9.7 0.00 0.00 0.00 48 1010.9
20260504172131 22 52 4.8 4.8 0.00 0.00 0.00 42 1011.1
20260504171627 22 149 3.2 9.7 0.00 0.00 0.00 41 1011.0
20260504171125 22 205 1.6 4.8 0.00 0.00 0.00 48 1011.1
20260504170620 22 227 0.0 3.2 0.00 0.00 0.00 40 1011.0
20260504170118 22 135 0.0 6.4 0.00 0.00 0.00 41 1011.1
20260504151004 18 89 0.0 11.3 0.00 0.00 0.00 48 1010.4
20260504150501 18 121 8.0 8.0 0.00 0.00 0.00 48 1010.4
20260504140922 18 119 6.4 11.3 0.00 0.00 0.00 49 1010.1
20260504140418 17 107 3.2 6.4 0.00 0.00 0.00 50 1010.1
20260504130344 16 115 3.2 6.4 0.00 0.00 0.00 39 1009.7
20260504120306 17 359 3.2 3.2 0.00 0.00 0.00 39 1009.8
20260504110230 18 359 1.6 3.2 0.00 0.00 0.00 33 1010.1
20260504100147 17 19 3.2 4.8 0.00 0.00 0.00 40 1009.9
20260504090110 19 299 0.0 4.8 0.00 0.00 0.00 33 1010.0
20260504081540 18 34 4.8 6.4 0.00 0.00 0.00 37 1010.0
20260504081036 18 6 4.8 6.4 0.00 0.00 0.00 37 1009.8
20260504080533 19 350 3.2 4.8 0.00 0.00 0.00 36 1009.9
20260504050347 20 34 3.2 4.8 0.00 0.00 0.00 33 1010.7
20260504045844 20 23 3.2 4.8 0.00 0.00 0.00 32 1010.7
20260504045343 20 8 1.6 3.2 0.00 0.00 0.00 32 1010.7
20260504044841 20 22 4.8 4.8 0.00 0.00 0.00 32 1010.5
20260504044338 20 335 3.2 3.2 0.00 0.00 0.00 34 1010.5
20260504043835 20 322 4.8 4.8 0.00 0.00 0.00 32 1010.7
20260504043332 20 353 3.2 4.8 0.00 0.00 0.00 33 1010.7
20260504042830 20 328 4.8 6.4 0.00 0.00 0.00 32 1010.4
20260504042326 20 322 6.4 8.0 0.00 0.00 0.00 33 1010.5
20260504041822 19 340 3.2 8.0 0.00 0.00 0.00 34 1010.8
20260504041318 19 355 3.2 6.4 0.00 0.00 0.00 34 1010.5
20260504040815 20 335 4.8 6.4 0.00 0.00 0.00 34 1010.4
20260504040313 20 16 3.2 6.4 0.00 0.00 0.00 33 1010.4